STARLINK-11459, 62464

Orbit data source: Space-Track

STARLINK-11459, 62464 is a payload satellite owned by SpaceX/Seattle (US) in LEO that was launched on Tue, 31 Dec 2024 UTC via an FALCON 9 launch vehicle from the Air Force Eastern Test Range (AFETR). Payload-class satellites include a variety of spacecraft equipped with specific instruments for various scientific and technological missions. These include communications satellites like Starlink; space stations such as the ISS; scientific satellites like the Hubble; Earth observation satellites from companies like Planet Labs, Umbra, and HawkEye 360; GPS; miniature CubeSats for education and research; and military/defense satellites.

Loading next visibility...
Identifier
62464, 2024-254C
Orbit
LEO
Country
Flag of USUS
Related business
Manufacturer
SpaceX/Seattle
Mission
Partially operational Commercial Communications
Bus & Motor
STARLINK V2MD, Unknown motor
Mass
960 kg wet, ~910 kg dry
Launch date (UTC)
2024-12-31 (1 year ago)
Launch vehicle
FALCON 9
Launch site
Air Force Eastern Test Range (AFETR)
Object type
Payload
Rocket body
Debris
Shape & HBR
Box + 2 Pan, 18.1 m
Radar Cross Section
36.964 m², Large (>1 m²)

Expand to show TLE details & history
Last TLE update: 12 hours ago

TLE from 12 hours ago
0 STARLINK-11459
1 62464U 24254C   25352.33335648  .00372609  61288-4  10303-2 0  9996
2 62464  42.9875 348.8030 0008948 119.6038 343.8262 15.92990946  5919
Epoch: 2025-12-18T08:00Z
TLE epoch observation values (Epoch: 2025-12-18T08:00:01.999Z)
Latitude
41.70855°
Longitude
-110.33593°
Altitude
290.972 km
Speed
7.742 km/s
True Right ascension
06h 27m 27s
True Declination
41° 31' 33"
Sunlit
Object was in full shadow at epoch
Visualization orbit readout
Latitude
Unknown
Longitude
Unknown
Altitude
Unknown
Speed
Unknown
Apparent Right ascension
Unknown
Apparent Declination
Unknown
Sunlit
N/A
Visualization observer readout
Local Sidereal Time
19:14:00
Azimuth
Unknown
Elevation
Unknown
Doppler factor
Unknown
Orbital elements
Apogee altitude
301.892 km
Perigee altitude
289.949 km
Semi-major axis
6,674.058 km
Eccentricity
0.00089
Inclination
42.9875°
RAAN
348.803°
Arg. of periapsis
119.6038°
True anomaly
343.79761°
Mean anomaly
343.8262°
Eccentric anomaly
343.81191°
Mean motion
3.98069 °/min
Orbital period
90.44 mins
BSTAR
0.0010303
Loading maneuver chart data...
Computing Atmospheric mass density...
Loading historical data...
Loading historical data...
Loading historical data...
Loading historical data...
Loading historical data...
Loading historical data...
Loading historical data...

Documentation

Showing up to 5 results
|